Terminal Aerodrome Forecast
Issued by NWS Sioux Falls, SD

Home | Current Version | Previous Version | Text Only | Print | Product List | Glossary On
Versions: 1 2 3 4 5 6 7 8 9 10 11 12 13
000
FTUS43 KFSD 050520
TAFHON
TAF
KHON 050520Z 0506/0606 13007KT P6SM SCT080 BKN250
     FM051500 16010KT P6SM SCT045 SCT100
     FM060100 15008KT P6SM SCT040=

USA.gov is the U.S. government's official web portal to all federal, state and local government web resources and services.